sat.trackr.live / text

‹ back to catalog

STARLINK-11086 [DTC]

NORAD 60043 · 2024-112F

PAYLOAD ACTIVE UNKNOWN

§ Identity

Operator
Country
US
Launch date
2024-06-08
Launch site
AFWTR
Launch vehicle
Mass (kg)
RCS (m²)

Purposes: comms

External: N2YO · Heavens-Above · Gunter

§ Orbital elements

Epoch: 2026-09-21T13:22:33.485664Z

Period
91.74 min
Inclination
53.1593°
Eccentricity
0.0000992
Mean motion
15.69694532 rev/d
Perigee alt
359.1 km
Apogee alt
360.4 km
Semi-major
6,737.9 km
B*
-1.7882e-5
RAAN
20.7586°
Arg perigee
38.8978°
Mean anomaly
321.2112°
Rev number
13,174

§ Raw data

STARLINK-11086 [DTC]1 60043U 24112F   26264.55733201 -.00002752  00000+0 -17882-4 0  99962 60043  53.1593  20.7586 0000992  38.8978 321.2112 15.69694532131740

JSON: /api/v1/satellites/60043 · /tle

For live sub-satellite position, see the globe view (requires WebGL).

§ Visibility from observer

Set your observer location to see the next 7 days of passes ≥ 10°. The values pass through the URL so the page stays shareable.

No JS? Fill the form by hand. The geolocation button needs JavaScript.